Weather History for Perry, IA

Change the Weather History Date:

Monday, April 1, 2013

  Actual Average Record
Temperature  
Mean Temperature 30 °F -  
Max Temperature 37 °F 53 °F 86 °F (2012)
Min Temperature 22 °F 31 °F 19 °F (1975)
Degree Days  
Heating Degree Days 36    
Moisture  
Dew Point 19 °F    
Average Humidity 66    
Maximum Humidity 86    
Minimum Humidity 45    
Precipitation  
Precipitation 0.00 in - - ()
Sea Level Pressure  
Sea Level Pressure 30.25 in    
Wind  
Wind Speed 13 mph (NNW)    
Max Wind Speed 20 mph    
Max Gust Speed 24 mph    
Visibility 10 miles    
Events      
Averages and records for this station are not official NWS values.
T = Trace of Precipitation, MM = Missing Value Source: NWS Daily Summary

Daily Weather History Graph

Daily Weather History Graph

Search for Another Location

Airport:

Trip Planner

Search our weather history database for the weather conditions in past years. The results will help you decide how hot, cold, wet, or windy it might be!

Date:

Astronomy

Apr. 01, 2013 Rise Set
Actual Time 6:59 AM CDT 7:42 PM CDT
Civil Twilight 6:30 AM CDT 8:10 PM CDT
Nautical Twilight 5:57 AM CDT 8:44 PM CDT
Astronomical Twilight 5:23 AM CDT 9:18 PM CDT
Moon 12:55 AM CDT (4/1) 10:42 AM CDT (4/1)
Length of Visible Light 13h 39m
Length of Day
12h 43m
Waning Gibbous, 67% of the Moon is Illuminated
Apr 1
Waning Gibbous
Apr 2
Last Quarter
Apr 10
New
Apr 18
First Quarter
Apr 25
Full

Hourly Weather History & Observations

Time (CDT) Temp. Windchill Dew Point Humidity Pressure Visibility Wind Dir Wind Speed Gust Speed Precip Events Conditions
12:15 AM 30.2 °F 19.3 °F 21.0 °F 69% 30.12 in 10.0 mi North 15.0 mph - N/A   Mostly Cloudy
12:35 AM 29.3 °F 17.7 °F 21.2 °F 72% 30.12 in 10.0 mi NNW 16.1 mph - N/A   Scattered Clouds
12:55 AM 28.8 °F 16.6 °F 19.2 °F 68% 30.13 in 10.0 mi NNW 17.3 mph - N/A   Clear
1:15 AM 28.0 °F 16.5 °F 19.9 °F 72% 30.15 in 10.0 mi NNW 15.0 mph - N/A   Clear
1:35 AM 27.5 °F 16.3 °F 19.8 °F 73% 30.15 in 10.0 mi NNW 13.8 mph 20.7 mph N/A   Clear
1:55 AM 27.1 °F 15.9 °F 19.4 °F 73% 30.16 in 10.0 mi NNW 13.8 mph - N/A   Clear
2:15 AM 26.6 °F 13.1 °F 19.8 °F 75% 30.16 in 10.0 mi NNW 19.6 mph 24.2 mph N/A   Clear
2:35 AM 26.1 °F 14.5 °F 19.6 °F 76% 30.16 in 10.0 mi NNW 13.8 mph 20.7 mph N/A   Clear
2:55 AM 25.7 °F 14.0 °F 18.5 °F 74% 30.16 in 10.0 mi North 13.8 mph - N/A   Clear
3:15 AM 25.2 °F 12.4 °F 18.3 °F 75% 30.16 in 10.0 mi North 16.1 mph 19.6 mph N/A   Scattered Clouds
3:35 AM 24.8 °F 12.4 °F 18.1 °F 76% 30.17 in 10.0 mi North 15.0 mph 20.7 mph N/A   Clear
3:55 AM 24.6 °F 11.7 °F 18.5 °F 78% 30.17 in 10.0 mi North 16.1 mph - N/A   Clear
4:15 AM 24.3 °F 10.8 °F 17.4 °F 75% 30.18 in 10.0 mi North 17.3 mph 20.7 mph N/A   Clear
4:35 AM 23.7 °F 11.0 °F 16.9 °F 75% 30.18 in 10.0 mi North 15.0 mph - N/A   Clear
4:55 AM 23.7 °F 10.1 °F 16.7 °F 75% 30.19 in 10.0 mi North 17.3 mph 21.9 mph N/A   Clear
5:15 AM 23.5 °F 10.3 °F 16.7 °F 75% 30.20 in 10.0 mi NNW 16.1 mph 20.7 mph N/A   Clear
5:35 AM 23.4 °F 12.8 °F 16.7 °F 76% 30.21 in 10.0 mi NNW 10.4 mph - N/A   Clear
5:55 AM 23.0 °F 12.4 °F 17.6 °F 80% 30.21 in 10.0 mi NNW 10.4 mph - N/A   Clear
6:15 AM 22.8 °F 10.9 °F 17.6 °F 80% 30.22 in 10.0 mi NNW 12.7 mph - N/A   Clear
6:35 AM 22.6 °F 11.3 °F 17.2 °F 80% 30.24 in 10.0 mi NNW 11.5 mph - N/A   Clear
6:55 AM 22.1 °F 12.0 °F 17.2 °F 82% 30.24 in 10.0 mi NNW 9.2 mph - N/A   Clear
7:15 AM 22.1 °F 11.3 °F 17.2 °F 82% 30.24 in 10.0 mi NNW 10.4 mph - N/A   Clear
7:35 AM 22.8 °F 10.4 °F 17.1 °F 79% 30.26 in 10.0 mi NNW 13.8 mph - N/A   Clear
7:55 AM 23.4 °F 10.6 °F 17.1 °F 77% 30.27 in 10.0 mi NNW 15.0 mph 21.9 mph N/A   Clear
8:15 AM 23.9 °F 10.8 °F 17.8 °F 77% 30.27 in 10.0 mi NNW 16.1 mph - N/A   Clear
8:35 AM 24.4 °F 11.5 °F 16.9 °F 73% 30.28 in 10.0 mi NNW 16.1 mph - N/A   Scattered Clouds
8:55 AM 25.2 °F 12.0 °F 16.9 °F 71% 30.28 in 10.0 mi North 17.3 mph - N/A   Scattered Clouds
9:15 AM 25.9 °F 12.9 °F 17.2 °F 70% 30.29 in 10.0 mi NNW 17.3 mph - N/A   Scattered Clouds
9:35 AM 26.4 °F 16.0 °F 16.7 °F 67% 30.29 in 10.0 mi North 11.5 mph 20.7 mph N/A   Scattered Clouds
9:55 AM 27.9 °F 17.3 °F 17.4 °F 65% 30.29 in 10.0 mi NNW 12.7 mph 20.7 mph N/A   Scattered Clouds
10:15 AM 27.5 °F 15.4 °F 18.3 °F 68% 30.30 in 10.0 mi NNW 16.1 mph - N/A   Mostly Cloudy
10:35 AM 28.9 °F 18.2 °F 17.8 °F 63% 30.30 in 10.0 mi NNW 13.8 mph 20.7 mph N/A   Scattered Clouds
10:55 AM 29.3 °F 18.2 °F 16.3 °F 58% 30.30 in 10.0 mi North 15.0 mph 21.9 mph N/A   Clear
11:15 AM 29.5 °F 20.4 °F 17.4 °F 61% 30.30 in 10.0 mi NW 10.4 mph 21.9 mph N/A   Clear
11:35 AM 30.2 °F 20.2 °F 17.2 °F 59% 30.31 in 10.0 mi NNW 12.7 mph 20.7 mph N/A   Clear
11:55 AM 30.9 °F 19.4 °F 17.1 °F 57% 30.31 in 10.0 mi NNW 17.3 mph 20.7 mph N/A   Clear
12:15 PM 31.8 °F 21.4 °F 18.0 °F 57% 30.31 in 10.0 mi North 15.0 mph 19.6 mph N/A   Clear
12:35 PM 32.5 °F 23.2 °F 18.3 °F 56% 30.31 in 10.0 mi NNW 12.7 mph 20.7 mph N/A   Clear
12:55 PM 32.7 °F 22.5 °F 18.3 °F 55% 30.30 in 10.0 mi NNW 15.0 mph 19.6 mph N/A   Clear
1:15 PM 33.1 °F 24.9 °F 18.7 °F 56% 30.30 in 10.0 mi NNW 10.4 mph 21.9 mph N/A   Clear
1:35 PM 33.8 °F 23.2 °F 18.1 °F 53% 30.29 in 10.0 mi North 17.3 mph 21.9 mph N/A   Clear
1:55 PM 34.3 °F 25.9 °F 20.5 °F 57% 30.29 in 10.0 mi NW 11.5 mph 21.9 mph N/A   Clear
2:15 PM 35.2 °F 26.2 °F 19.9 °F 54% 30.28 in 10.0 mi North 13.8 mph 20.7 mph N/A   Clear
2:35 PM 34.7 °F 26.4 °F 19.2 °F 53% 30.28 in 10.0 mi NW 11.5 mph 19.6 mph N/A   Scattered Clouds
2:55 PM 36.0 °F 27.1 °F 20.7 °F 54% 30.28 in 10.0 mi North 13.8 mph 18.4 mph N/A   Scattered Clouds
3:15 PM 36.3 °F 27.5 °F 19.6 °F 51% 30.27 in 10.0 mi NNW 13.8 mph 19.6 mph N/A   Scattered Clouds
3:35 PM 36.7 °F 28.0 °F 17.4 °F 46% 30.27 in 10.0 mi North 13.8 mph 21.9 mph N/A   Clear
3:55 PM 37.0 °F 27.4 °F 19.0 °F 48% 30.27 in 10.0 mi NNW 17.3 mph 24.2 mph N/A   Clear
4:15 PM 37.2 °F 28.7 °F 19.9 °F 50% 30.26 in 10.0 mi North 13.8 mph 18.4 mph N/A   Clear
4:35 PM 36.7 °F 28.4 °F 19.0 °F 49% 30.26 in 10.0 mi NNW 12.7 mph 21.9 mph N/A   Clear
4:55 PM 37.4 °F 29.3 °F 18.3 °F 46% 30.26 in 10.0 mi North 12.7 mph 20.7 mph N/A   Clear
5:15 PM 36.9 °F 29.6 °F 19.0 °F 49% 30.26 in 10.0 mi NW 10.4 mph 18.4 mph N/A   Scattered Clouds
5:35 PM 37.2 °F 29.1 °F 17.6 °F 45% 30.26 in 10.0 mi NW 12.7 mph - N/A   Scattered Clouds
5:55 PM 36.7 °F 27.2 °F 17.8 °F 46% 30.25 in 10.0 mi NNW 16.1 mph - N/A   Clear
6:15 PM 36.5 °F 28.2 °F 17.8 °F 47% 30.25 in 10.0 mi NNW 12.7 mph - N/A   Clear
6:35 PM 35.8 °F 27.3 °F 17.4 °F 47% 30.25 in 10.0 mi North 12.7 mph - N/A   Clear
6:55 PM 35.4 °F 26.8 °F 18.3 °F 50% 30.25 in 10.0 mi North 12.7 mph - N/A   Clear
7:15 PM 34.5 °F 26.2 °F 18.3 °F 52% 30.25 in 10.0 mi North 11.5 mph - N/A   Clear
7:35 PM 33.3 °F 25.1 °F 18.9 °F 56% 30.25 in 10.0 mi North 10.4 mph - N/A   Clear
7:55 PM 32.2 °F 25.8 °F 18.7 °F 58% 30.25 in 10.0 mi North 6.9 mph - N/A   Clear
8:15 PM 31.5 °F 24.9 °F 19.4 °F 61% 30.25 in 10.0 mi North 6.9 mph - N/A   Clear
8:35 PM 30.4 °F 25.6 °F 19.0 °F 63% 30.26 in 10.0 mi North 4.6 mph - N/A   Clear
8:55 PM 29.7 °F 24.7 °F 20.1 °F 68% 30.26 in 10.0 mi NNW 4.6 mph - N/A   Clear
9:15 PM 28.8 °F 23.7 °F 20.1 °F 70% 30.27 in 10.0 mi NNW 4.6 mph - N/A   Clear
9:35 PM 28.2 °F 23.1 °F 20.3 °F 72% 30.28 in 10.0 mi NNW 4.6 mph - N/A   Clear
9:55 PM 26.6 °F 22.6 °F 21.0 °F 79% 30.29 in 10.0 mi NNW 3.5 mph - N/A   Clear
10:15 PM 26.6 °F 22.6 °F 21.0 °F 79% 30.29 in 10.0 mi NW 3.5 mph - N/A   Clear
10:35 PM 27.3 °F 23.4 °F 21.0 °F 77% 30.29 in 10.0 mi NNW 3.5 mph - N/A   Clear
10:55 PM 27.7 °F - 20.8 °F 75% 30.29 in 10.0 mi Calm Calm - N/A   Clear
11:15 PM 27.5 °F - 21.0 °F 77% 30.29 in 10.0 mi Calm Calm - N/A   Clear
11:35 PM 26.2 °F 22.1 °F 20.3 °F 78% 30.29 in 10.0 mi West 3.5 mph - N/A   Clear
11:55 PM 24.6 °F 18.8 °F 21.0 °F 86% 30.29 in 10.0 mi West 4.6 mph - N/A   Clear